Montevideo, MN

4:08 PM CST on December 15, 2017 (GMT -0600)
Montevideo-Chippewa County

Weather History for KMVE - January, 2014

Change the Weather History Date:

Friday, January 10, 2014

  Actual Average Record
Temperature  
Mean Temperature 27 °F -  
Max Temperature 33 °F 17 °F 55 °F (1990)
Min Temperature 21 °F -2 °F -30 °F (1982)
Degree Days  
Heating Degree Days 38    
Moisture  
Dew Point 27 °F    
Average Humidity 94    
Maximum Humidity 100    
Minimum Humidity 86    
Precipitation  
Precipitation 0.00 in - - ()
Sea Level Pressure  
Sea Level Pressure 29.58 in    
Wind  
Wind Speed 11 mph (SW)    
Max Wind Speed 18 mph    
Max Gust Speed 23 mph    
Visibility 5 miles    
Events      
Averages and records for this station are not official NWS values.
T = Trace of Precipitation, MM = Missing Value Source: NWS Daily Summary

Daily Weather History Graph

Daily Weather History Graph

Search for Another Location

Airport or City:

Trip Planner

Search our weather history database for the weather conditions in past years. The results will help you decide how hot, cold, wet, or windy it might be!

Date:

Astronomy

Jan. 10, 2014 Rise Set
Actual Time 7:59 AM CST 5:01 PM CST
Civil Twilight 7:26 AM CST 5:34 PM CST
Nautical Twilight 6:49 AM CST 6:11 PM CST
Astronomical Twilight 6:14 AM CST 6:46 PM CST
Moon 1:09 PM CST (1/10) 3:03 AM CST (1/10)
Length of Visible Light 10h 08m
Length of Day
9h 01m
Waxing Gibbous, 75% of the Moon is Illuminated
Jan 10
Waxing Gibbous
Jan 15
Full
Jan 23
Last Quarter
Jan 30
New
Feb 6
First Quarter

Hourly Weather History & Observations

Time (CST) Temp. Windchill Dew Point Humidity Pressure Visibility Wind Dir Wind Speed Gust Speed Precip Events Conditions
2:02 AM 26.6 °F 13.4 °F 23.0 °F 86% 29.72 in 7.0 mi SW 18.4 mph 23.0 mph N/A   Overcast
2:14 AM 26.6 °F 13.8 °F 23.0 °F 86% 29.73 in 5.0 mi SW 17.3 mph 21.9 mph N/A   Overcast
2:34 AM 26.6 °F 15.7 °F 24.8 °F 93% 29.73 in 5.0 mi SW 12.7 mph 20.7 mph N/A   Overcast
2:54 AM 26.6 °F 14.7 °F 24.8 °F 93% 29.72 in 5.0 mi SSW 15.0 mph 19.6 mph N/A   Overcast
3:14 AM 26.6 °F 14.3 °F 24.8 °F 93% 29.71 in 5.0 mi SW 16.1 mph 19.6 mph N/A   Overcast
3:35 AM 26.6 °F 14.7 °F 24.8 °F 93% 29.70 in 5.0 mi SW 15.0 mph 21.9 mph N/A   Overcast
3:54 AM 26.6 °F 16.8 °F 24.8 °F 93% 29.70 in 5.0 mi SSW 10.4 mph 17.3 mph N/A   Overcast
4:14 AM 26.6 °F 15.7 °F 24.8 °F 93% 29.68 in 5.0 mi SW 12.7 mph - N/A   Overcast
4:34 AM 28.4 °F 19.1 °F 26.6 °F 93% 29.68 in 5.0 mi SSW 10.4 mph 16.1 mph N/A   Overcast
4:54 AM 28.4 °F 19.1 °F 26.6 °F 93% 29.67 in 5.0 mi SSW 10.4 mph 18.4 mph N/A   Overcast
5:14 AM 28.4 °F 18.5 °F 26.6 °F 93% 29.66 in 5.0 mi SSW 11.5 mph 17.3 mph N/A   Overcast
5:34 AM 28.4 °F 18.5 °F 26.6 °F 93% 29.65 in 5.0 mi SSW 11.5 mph - N/A   Overcast
5:54 AM 28.4 °F 19.1 °F 26.6 °F 93% 29.65 in 5.0 mi SSW 10.4 mph 16.1 mph N/A   Overcast
6:14 AM 28.4 °F 19.1 °F 26.6 °F 93% 29.65 in 7.0 mi SSW 10.4 mph 16.1 mph N/A   Overcast
6:34 AM 28.4 °F 20.4 °F 26.6 °F 93% 29.65 in 7.0 mi SSW 8.1 mph - N/A   Overcast
6:54 AM 30.2 °F 21.9 °F 26.6 °F 86% 29.64 in 7.0 mi SW 9.2 mph - N/A   Overcast
7:14 AM 30.2 °F 21.9 °F 28.4 °F 93% 29.64 in 7.0 mi SSW 9.2 mph - N/A   Overcast
7:34 AM 28.4 °F 19.1 °F 26.6 °F 93% 29.63 in 5.0 mi SSW 10.4 mph - N/A   Overcast
7:54 AM 28.4 °F 19.1 °F 28.4 °F 100% 29.62 in 5.0 mi SSW 10.4 mph - N/A   Overcast
8:14 AM 28.4 °F 18.0 °F 28.4 °F 100% 29.62 in 5.0 mi SSW 12.7 mph 17.3 mph N/A   Overcast
8:34 AM 30.2 °F 21.9 °F 28.4 °F 93% 29.62 in 5.0 mi SSW 9.2 mph - N/A   Overcast
8:54 AM 30.2 °F 20.8 °F 28.4 °F 93% 29.62 in 4.0 mi SSW 11.5 mph 17.3 mph N/A   Overcast
9:14 AM 30.2 °F 20.8 °F 28.4 °F 93% 29.62 in 3.0 mi SSW 11.5 mph - N/A   Overcast
9:34 AM 28.4 °F 19.7 °F 28.4 °F 100% 29.62 in 3.0 mi SSW 9.2 mph - N/A   Overcast
9:54 AM 30.2 °F 23.4 °F 28.4 °F 93% 29.63 in 3.0 mi SSW 6.9 mph - N/A   Overcast
10:14 AM 30.2 °F 21.9 °F 28.4 °F 93% 29.63 in 3.0 mi SSW 9.2 mph - N/A   Overcast
10:34 AM 30.2 °F 21.3 °F 28.4 °F 93% 29.62 in 3.0 mi SSW 10.4 mph - N/A   Overcast
10:54 AM 30.2 °F 21.3 °F 28.4 °F 93% 29.62 in 3.0 mi SSW 10.4 mph - N/A   Overcast
11:14 AM 30.2 °F 21.3 °F 28.4 °F 93% 29.62 in 3.0 mi SSW 10.4 mph - N/A   Overcast
11:34 AM 30.2 °F 21.3 °F 28.4 °F 93% 29.60 in 2.5 mi SSW 10.4 mph 16.1 mph N/A   Overcast
11:54 AM 30.2 °F 21.9 °F 28.4 °F 93% 29.59 in 2.5 mi SSW 9.2 mph - N/A   Overcast
12:14 PM 30.2 °F 21.3 °F 28.4 °F 93% 29.58 in 2.5 mi SSW 10.4 mph 16.1 mph N/A   Overcast
12:34 PM 32.0 °F 24.2 °F 30.2 °F 93% 29.57 in 2.5 mi SW 9.2 mph - N/A   Overcast
12:54 PM 32.0 °F 24.8 °F 30.2 °F 93% 29.56 in 2.5 mi SW 8.1 mph - N/A   Overcast
1:14 PM 32.0 °F 24.8 °F 30.2 °F 93% 29.55 in 3.0 mi SW 8.1 mph - N/A   Overcast
1:34 PM 32.0 °F 23.6 °F 30.2 °F 93% 29.54 in 3.0 mi SW 10.4 mph - N/A   Overcast
1:54 PM 32.0 °F 24.8 °F 30.2 °F 93% 29.54 in 3.0 mi SW 8.1 mph - N/A   Overcast
2:14 PM 33.8 °F 26.4 °F 30.2 °F 87% 29.53 in 3.0 mi SW 9.2 mph - N/A   Overcast
2:34 PM 33.8 °F 27.0 °F 30.2 °F 87% 29.52 in 4.0 mi WSW 8.1 mph - N/A   Overcast
2:54 PM 33.8 °F 29.6 °F 30.2 °F 87% 29.52 in 4.0 mi WSW 4.6 mph - N/A   Overcast
3:14 PM 33.8 °F 27.7 °F 32.0 °F 93% 29.52 in 4.0 mi SW 6.9 mph - N/A   Overcast
3:34 PM 33.8 °F 27.7 °F 30.2 °F 87% 29.52 in 4.0 mi WSW 6.9 mph - N/A   Overcast
3:55 PM 33.8 °F 28.6 °F 30.2 °F 87% 29.53 in 4.0 mi SW 5.8 mph - N/A   Mostly Cloudy
4:14 PM 33.8 °F 28.6 °F 30.2 °F 87% 29.53 in 4.0 mi SW 5.8 mph - N/A   Mostly Cloudy
4:34 PM 33.8 °F 27.7 °F 30.2 °F 87% 29.53 in 4.0 mi SW 6.9 mph - N/A   Scattered Clouds
4:54 PM 32.0 °F 27.5 °F 28.4 °F 87% 29.53 in 5.0 mi SSW 4.6 mph - N/A   Clear
5:14 PM 30.2 °F 26.7 °F 28.4 °F 93% 29.53 in 5.0 mi SSW 3.5 mph - N/A   Mostly Cloudy
5:34 PM 30.2 °F 24.3 °F 28.4 °F 93% 29.53 in 5.0 mi SW 5.8 mph - N/A   Overcast
5:54 PM 28.4 °F 22.2 °F 28.4 °F 100% 29.53 in 4.0 mi SW 5.8 mph - N/A   Overcast
6:14 PM 28.4 °F 24.6 °F 26.6 °F 93% 29.53 in 4.0 mi SW 3.5 mph - N/A   Scattered Clouds
6:34 PM 26.6 °F 20.0 °F 26.6 °F 100% 29.52 in 3.0 mi WSW 5.8 mph - N/A   Clear
6:54 PM 28.4 °F 22.2 °F 26.6 °F 93% 29.52 in 3.0 mi SW 5.8 mph - N/A   Clear
7:14 PM 26.6 °F 20.0 °F 26.6 °F 100% 29.51 in 2.5 mi WSW 5.8 mph - N/A   Clear
7:34 PM 28.4 °F 22.2 °F 26.6 °F 93% 29.51 in 3.0 mi WNW 5.8 mph - N/A   Clear
7:54 PM 26.6 °F 21.2 °F 26.6 °F 100% 29.52 in 2.5 mi WNW 4.6 mph - N/A   Clear
8:14 PM 26.6 °F 21.2 °F 24.8 °F 93% 29.52 in 2.0 mi NW 4.6 mph - N/A   Clear
8:34 PM 26.6 °F 22.6 °F 24.8 °F 93% 29.51 in 4.0 mi WNW 3.5 mph - N/A   Clear
8:54 PM 24.8 °F 17.9 °F 24.8 °F 100% 29.51 in 5.0 mi WNW 5.8 mph - N/A   Clear
9:14 PM 24.8 °F 17.9 °F 24.8 °F 100% 29.51 in 7.0 mi WNW 5.8 mph - N/A   Clear
9:34 PM 24.8 °F 16.9 °F 24.8 °F 100% 29.51 in 7.0 mi NW 6.9 mph - N/A   Clear
9:54 PM 23.0 °F 15.8 °F 23.0 °F 100% 29.51 in 7.0 mi NW 5.8 mph - N/A   Clear
10:14 PM 23.0 °F 17.0 °F 23.0 °F 100% 29.51 in 7.0 mi NW 4.6 mph - N/A   Clear
10:34 PM 21.2 °F 14.9 °F 21.2 °F 100% 29.51 in 10.0 mi NW 4.6 mph - N/A   Clear
10:54 PM 21.2 °F 13.6 °F 21.2 °F 100% 29.51 in 10.0 mi WNW 5.8 mph - N/A   Clear
11:14 PM 21.2 °F 13.6 °F 21.2 °F 100% 29.51 in 10.0 mi NW 5.8 mph - N/A   Clear
11:34 PM 21.2 °F 13.6 °F 21.2 °F 100% 29.51 in 10.0 mi WNW 5.8 mph - N/A   Clear
11:54 PM 21.2 °F 11.7 °F 21.2 °F 100% 29.51 in 10.0 mi WNW 8.1 mph - N/A   Clear